Weather History for Hartford, CT

Change the Weather History Date:

Tuesday, January 8, 2013

  Actual Average Record
Temperature  
Mean Temperature 34 °F -  
Max Temperature 48 °F 35 °F 82 °F (2008)
Min Temperature 19 °F 18 °F -6 °F (1942)
Degree Days  
Heating Degree Days 32    
Moisture  
Dew Point 25 °F    
Average Humidity 72    
Maximum Humidity 92    
Minimum Humidity 44    
Precipitation  
Precipitation 0.00 in - - ()
Sea Level Pressure  
Sea Level Pressure 30.35 in    
Wind  
Wind Speed 4 mph (SSW)    
Max Wind Speed 15 mph    
Max Gust Speed 21 mph    
Visibility 8 miles    
Events      
Averages and records for this station are not official NWS values.
T = Trace of Precipitation, MM = Missing Value Source: NWS Daily Summary

Daily Weather History Graph

Daily Weather History Graph

Search for Another Location

Airport:

Trip Planner

Search our weather history database for the weather conditions in past years. The results will help you decide how hot, cold, wet, or windy it might be!

Date:

Astronomy

Jan. 08, 2013 Rise Set
Actual Time 7:17 AM EST 4:37 PM EST
Civil Twilight 6:46 AM EST 5:08 PM EST
Nautical Twilight 6:11 AM EST 5:43 PM EST
Astronomical Twilight 5:38 AM EST 6:16 PM EST
Moon 3:47 AM EST (1/8) 1:37 PM EST (1/8)
Length of Visible Light 10h 22m
Length of Day
9h 20m
Waning Crescent, 14% of the Moon is Illuminated
Jan 8
Waning Crescent
Jan 11
New
Jan 18
First Quarter
Jan 26
Full
Feb 3
Last Quarter

Hourly Weather History & Observations

Time (EST) Temp. Windchill Dew Point Humidity Pressure Visibility Wind Dir Wind Speed Gust Speed Precip Events Conditions
12:53 AM 21.0 °F - 18.0 °F 88% 30.38 in 8.0 mi Calm Calm - N/A   Clear
1:53 AM 19.9 °F - 17.1 °F 89% 30.38 in 5.0 mi Calm Calm - N/A   Clear
2:53 AM 26.1 °F 19.4 °F 21.0 °F 81% 30.36 in 10.0 mi SSW 5.8 mph - N/A   Clear
3:53 AM 21.9 °F - 19.9 °F 92% 30.35 in 7.0 mi Calm Calm - N/A   Clear
4:53 AM 21.0 °F - 19.0 °F 92% 30.35 in 6.0 mi Calm Calm - N/A   Clear
5:53 AM 19.9 °F 14.9 °F 18.0 °F 92% 30.36 in 5.0 mi South 3.5 mph - N/A   Clear
6:53 AM 26.1 °F 21.9 °F 21.9 °F 84% 30.37 in 8.0 mi South 3.5 mph - N/A   Clear
7:53 AM 28.9 °F 21.1 °F 25.0 °F 85% 30.40 in 6.0 mi South 8.1 mph - N/A   Clear
9:53 AM 39.0 °F 33.4 °F 27.0 °F 62% 30.40 in 9.0 mi SSW 8.1 mph - N/A   Clear
10:53 AM 42.1 °F 37.1 °F 27.0 °F 55% 30.38 in 10.0 mi SSW 8.1 mph - N/A   Clear
11:53 AM 44.1 °F 37.1 °F 27.0 °F 51% 30.34 in 10.0 mi SSW 15.0 mph 20.7 mph N/A   Clear
12:53 PM 46.0 °F 39.9 °F 27.0 °F 47% 30.30 in 10.0 mi South 13.8 mph 18.4 mph N/A   Clear
1:53 PM 46.9 °F - 28.0 °F 48% 30.31 in 10.0 mi South 11.5 mph - N/A   Clear
2:53 PM 48.0 °F - 28.0 °F 46% 30.30 in 10.0 mi SSW 3.5 mph - N/A   Clear
3:53 PM 46.9 °F - 26.1 °F 44% 30.31 in 10.0 mi WSW 6.9 mph - N/A   Clear
4:53 PM 44.1 °F 40.1 °F 25.0 °F 47% 30.32 in 10.0 mi SW 6.9 mph - N/A   Clear
5:53 PM 39.9 °F 36.7 °F 27.0 °F 60% 30.34 in 10.0 mi South 4.6 mph - N/A   Clear
6:53 PM 35.1 °F - 28.0 °F 76% 30.35 in 10.0 mi Calm Calm - N/A   Clear
7:53 PM 33.1 °F 28.7 °F 28.0 °F 82% 30.36 in 8.0 mi South 4.6 mph - N/A   Clear
8:53 PM 32.0 °F - 28.0 °F 85% 30.37 in 7.0 mi Calm Calm - N/A   Clear
9:53 PM 30.0 °F - 28.0 °F 92% 30.38 in 6.0 mi Calm Calm - N/A   Clear
10:53 PM 28.9 °F - 27.0 °F 92% 30.38 in 6.0 mi Calm Calm - N/A   Clear